Flag for U.S.A. Weather past 2 weeks in Tempe, Arizona, U.S.A.

Now
97 °F

Broken clouds.


Feels Like: 95 °F
Forecast: 84 / 102 °F
Wind: 3 mph from North

Location: Phoenix Sky Harbor International Airport

Current Time: Jul 3, 2015 at 4:45:28 PM

Latest Report: Jul 3, 2015 at 3:51 PM


Visibility: 10 mi

Pressure: 29.68 "Hg

Humidity: 25%

Dew point: 56 °F

Location of TempeLocation

Historic Weather in Tempe — Graph

°F

Tempe temperature yesterday

Maximum temperature yesterday: 105 °F (at 2:51 PM)
Minimum temperature yesterday: 88 °F (at 4:51 AM)
Average temperature yesterday: 97 °F

Past Weeks' High & Low Weather Summary

 TemperatureHumidityPressure
High114 °F (Jun 18, 2:51 PM)63% (Jun 30, 2:51 AM)29.89 "Hg (Jun 30, 2:51 AM)
Low81 °F (Jun 20, 5:51 AM)2% (Jun 19, 6:51 PM)29.61 "Hg (Jun 30, 7:51 PM)
Average98 °F23%29.75 "Hg
* Reported Jun 18 2:51 PM — Jul 3 2:51 PM, Tempe, Weather by CustomWeather, © 2015

Note: Actual official high and low records may vary slightly from our data, if they occured in-between our weather recording intervals... More about our weather records

Advertising

Tempe weather history for previous 24 hours

 ConditionsComfort  
Time TempWeatherWind HumidityBarometerVisibility
2:51 PM
Fri, Jul 3
95 °FBroken clouds.6 mph32%29.71 "Hg10 mi
1:51 PM95 °FBroken clouds.3 mph32%29.74 "Hg10 mi
12:51 PM94 °FBroken clouds.No wind31%29.77 "Hg10 mi
11:51 AM93 °FMostly cloudy.7 mph33%29.79 "Hg10 mi
10:51 AM90 °FMore clouds than sun.5 mph41%29.81 "Hg10 mi
9:51 AM89 °FMore clouds than sun.3 mph43%29.82 "Hg10 mi
8:51 AM86 °FMore clouds than sun.7 mph51%29.83 "Hg10 mi
7:51 AM84 °FBroken clouds.15 mph57%29.83 "Hg10 mi
6:51 AM83 °FMore clouds than sun.12 mph59%29.83 "Hg10 mi
5:51 AM83 °FThunderstorms. Broken clouds.18 mph63%29.83 "Hg10 mi
4:51 AM89 °FThunderstorms. Partly cloudy.13 mph41%29.77 "Hg10 mi
3:51 AM88 °FThunderstorms. Partly cloudy.12 mph46%29.70 "Hg10 mi
2:51 AM93 °FThunderstorms. Partly cloudy.7 mph32%29.75 "Hg10 mi
1:51 AM95 °FThunderstorms. Partly cloudy.6 mph31%29.73 "Hg10 mi
12:51 AM96 °FThunderstorms. Passing clouds.6 mph26%29.71 "Hg10 mi
12:03 AM97 °FThunderstorms. Passing clouds.7 mph24%29.77 "Hg10 mi
11:51 PM
Thu, Jul 2
97 °FPassing clouds.7 mph24%29.70 "Hg10 mi
10:51 PM99 °FPassing clouds.13 mph21%29.70 "Hg10 mi
9:51 PM99 °FPassing clouds.7 mph21%29.70 "Hg10 mi
8:51 PM100 °FPassing clouds.7 mph21%29.68 "Hg10 mi
7:51 PM102 °FPartly cloudy.10 mph20%29.66 "Hg10 mi
6:51 PM103 °FScattered clouds.14 mph18%29.65 "Hg10 mi
5:51 PM105 °FScattered clouds.14 mph16%29.65 "Hg10 mi
4:51 PM105 °FScattered clouds.13 mph18%29.67 "Hg10 mi
Weather by CustomWeather, © 2015

See weather overviewHow to use our weather pages